{"data":{"norad_id":65471,"epoch":"2026-05-25T01:07:33.843936Z","epoch_age_seconds":61145,"freshness":"FRESH","line1":"1 65471U 25195P   26145.04691949  .00009122  00000+0  31970-3 0  9991","line2":"2 65471  53.1604 263.5513 0000949 108.9694 251.1409 15.30201990 41689","mean_motion":15.3020199,"eccentricity":9.49e-5,"inclination_deg":53.1604,"raan_deg":263.5513,"arg_perigee_deg":108.9694,"mean_anomaly_deg":251.1409,"bstar":0.0003197,"rev_number":4168,"period_min":94.105223324144,"perigee_km":474.55874509695,"apogee_km":475.85951019198,"semimajor_km":6853.3461276445,"source":"CELESTRAK","updated_at":"2026-05-25T13:38:20.814676Z"}}